Location: Unspecified
(0.0000°N, 0.0000°E)
Time: 11:37:22
(UTC+00:00)

Hubble Space Telescope - Pass Details

Date: 25 May 2020
Orbit: 536 x 540 km, 28.5° (Epoch: 30 May)

Event Time Altitude Azimuth Distance (km) Brightness Sun altitude
Exits shadow 04:08:01 16° 146° (SE) 1,434 3.0 -25.3°
Drops below altitude 10° 04:09:00 10° 140° (SE) 1,779 3.6 -25.1°
Sets 04:11:22 0° 132° (SE) 2,670 4.6 -24.5°
